Left ArrowRight Arrow

Hourly Observations for May 13, 2024

Temp ( °F °C ) Dew Point ( °F °C ) Humidity (%) Winds ( mph kmh ) Pressure ( in mb ) Visibility ( mi km ) Precip ( " mm )
12:53 am 00:53 Clear 62 16.7 55 12.8 78 78 Calm 29.98 1015 10 16 0.00 0.00
1:53 am 01:53 Clear 61 16.1 55 12.8 81 81 Calm 29.98 1015 10 16 0.00 0.00
2:53 am 02:53 Clear 59 15 56 13.3 90 90 Calm 29.97 1015 10 16 0.00 0.00
3:53 am 03:53 Clear 59 15 55 12.8 87 87 Calm 29.98 1015 10 16 0.00 0.00
4:53 am 04:53 Clear 59 15 56 13.3 90 90 Calm 29.99 1016 10 16 0.00 0.00
5:53 am 05:53 Clear 59 15 56 13.3 90 90 Calm 29.98 1015 10 16 0.00 0.00
6:53 am 06:53 Sunny 59 15 55 12.8 87 87 Calm 30.01 1016 10 16 0.00 0.00
7:53 am 07:53 Sunny 61 16.1 55 12.8 81 81 Calm 30.02 1017 10 16 0.00 0.00
8:53 am 08:53 Sunny 66 18.9 57 13.9 73 73 Calm 30.04 1017 10 16 0.00 0.00
9:53 am 09:53 Sunny 70 21.1 59 15 68 68 Calm 30.05 1018 10 16 0.00 0.00
10:53 am 10:53 Sunny 71 21.7 60 15.6 68 68 VRB 5 7 30.04 1017 10 16 0.00 0.00
11:53 am 11:53 Sunny 74 23.3 61 16.1 64 64 SSE 9 15 30.04 1017 10 16 0.00 0.00
12:53 pm 12:53 Mostly Cloudy 74 23.3 61 16.1 64 64 SSE 3 6 30.04 1017 10 16 0.00 0.00
1:53 pm 13:53 Partly Cloudy 75 23.9 60 15.6 60 60 S 7 11 30.05 1018 10 16 0.00 0.00
2:53 pm 14:53 Cloudy with Light Rain 74 23.3 62 16.7 66 66 SSW 9 15 30.06 1018 10 16 0.01 0.13
3:53 pm 15:53 Mostly Cloudy 72 22.2 60 15.6 66 66 S 12 19 30.02 1017 10 16 0.01 0.13
4:53 pm 16:53 Cloudy 71 21.7 60 15.6 68 68 S 7 11 30.01 1016 10 16 0.00 0.00
5:53 pm 17:53 Mostly Cloudy 70 21.1 59 15 68 68 SW 5 7 30.02 1017 10 16 0.00 0.00
6:53 pm 18:53 Cloudy 68 20 59 15 73 73 Calm 30.01 1016 10 16 0.00 0.00
7:53 pm 19:53 Cloudy 68 20 58 14.4 70 70 Calm 29.99 1016 10 16 0.00 0.00
8:53 pm 20:53 Cloudy 68 20 57 13.9 68 68 Calm 29.99 1016 10 16 0.00 0.00
9:53 pm 21:53 Mostly Cloudy 66 18.9 60 15.6 81 81 Calm 29.99 1016 10 16 0.01 0.13
10:53 pm 22:53 Cloudy 66 18.9 60 15.6 81 81 Calm 30.00 1016 10 16 0.00 0.00
11:53 pm 23:53 Cloudy 66 18.9 59 15 78 78 Calm 29.99 1016 10 16 0.00 0.00

Powered by Vaisala Xweather